Molokai, HI

8:20 AM HST on April 28, 2017 (GMT -1000)
Molokai

Weather History for PHMK - August, 2013

Change the Weather History Date:

Tuesday, August 20, 2013

  Actual Average Record
Temperature  
Mean Temperature 74 °F -  
Max Temperature 84 °F 85 °F 90 °F (1987)
Min Temperature 64 °F 70 °F 63 °F (1984)
Cooling Degree Days 9    
Growing Degree Days 24 (Base 50)    
Moisture  
Dew Point 68 °F    
Average Humidity 83    
Maximum Humidity 100    
Minimum Humidity 53    
Precipitation  
Precipitation 0.00 in - - ()
Sea Level Pressure  
Sea Level Pressure 29.99 in    
Wind  
Wind Speed 4 mph (NNE)    
Max Wind Speed 10 mph    
Max Gust Speed 21 mph    
Visibility 10 miles    
Events      
Averages and records for this station are not official NWS values.
T = Trace of Precipitation, MM = Missing Value Source: NWS Daily Summary

Daily Weather History Graph

Daily Weather History Graph

Search for Another Location

Airport or City:

Trip Planner

Search our weather history database for the weather conditions in past years. The results will help you decide how hot, cold, wet, or windy it might be!

Date:

Astronomy

Aug. 20, 2013 Rise Set
Actual Time 6:08 AM HST 6:54 PM HST
Civil Twilight 5:45 AM HST 7:17 PM HST
Nautical Twilight 5:18 AM HST 7:43 PM HST
Astronomical Twilight 4:51 AM HST 8:11 PM HST
Moon 6:42 PM HST (8/20) 5:46 AM HST (8/20)
Length of Visible Light 13h 31m
Length of Day
12h 45m
Full, 100% of the Moon is Illuminated
Aug 20
Full
Aug 20
Full
Aug 27
Last Quarter
Sep 5
New
Sep 12
First Quarter

Hourly Weather History & Observations

Time (HST) Temp. Heat Index Dew Point Humidity Pressure Visibility Wind Dir Wind Speed Gust Speed Precip Events Conditions
12:54 AM 66.0 °F - 64.9 °F 96% 30.03 in 10.0 mi Calm Calm - N/A   Clear
1:54 AM 64.9 °F - 64.9 °F 100% 30.01 in 10.0 mi Calm Calm - N/A   Clear
2:54 AM 66.9 °F - 66.0 °F 97% 30.00 in 10.0 mi North 5.8 mph - N/A   Clear
3:54 AM 66.0 °F - 66.0 °F 100% 29.99 in 10.0 mi WNW 4.6 mph - N/A   Clear
4:54 AM 66.0 °F - 66.0 °F 100% 29.99 in 10.0 mi WNW 3.5 mph - N/A   Clear
5:54 AM 66.0 °F - 64.9 °F 96% 29.99 in 10.0 mi ENE 6.9 mph - N/A   Clear
6:54 AM 71.1 °F - 69.1 °F 93% 30.01 in 10.0 mi Calm Calm - N/A   Scattered Clouds
7:54 AM 73.9 °F - 69.1 °F 85% 30.02 in 10.0 mi South 3.5 mph - N/A   Scattered Clouds
8:54 AM 78.1 °F - 69.1 °F 74% 30.02 in 10.0 mi Calm Calm - N/A   Scattered Clouds
9:54 AM 81.0 °F 83.0 °F 66.0 °F 60% 30.02 in 10.0 mi North 5.8 mph - N/A   Partly Cloudy
10:54 AM 84.0 °F 85.8 °F 64.9 °F 53% 30.02 in 10.0 mi North 6.9 mph - N/A   Partly Cloudy
11:54 AM 80.1 °F 82.7 °F 68.0 °F 67% 30.01 in 10.0 mi NNE 6.9 mph - N/A   Scattered Clouds
12:54 PM 82.9 °F 87.0 °F 70.0 °F 65% 29.99 in 10.0 mi North 10.4 mph - N/A   Mostly Cloudy
1:54 PM 80.1 °F 83.2 °F 70.0 °F 71% 29.98 in 10.0 mi NNE 5.8 mph - N/A   Overcast
2:54 PM 80.1 °F 82.9 °F 69.1 °F 69% 29.96 in 10.0 mi South 10.4 mph 20.7 mph N/A   Scattered Clouds
3:54 PM 82.0 °F 85.9 °F 70.0 °F 67% 29.96 in 10.0 mi South 10.4 mph - N/A   Scattered Clouds
4:54 PM 81.0 °F 84.1 °F 69.1 °F 67% 29.95 in 10.0 mi SSW 5.8 mph - N/A   Scattered Clouds
5:54 PM 79.0 °F - 66.9 °F 66% 29.96 in 10.0 mi SSW 4.6 mph - N/A   Mostly Cloudy
6:54 PM 75.9 °F - 71.1 °F 85% 29.97 in 10.0 mi NNE 4.6 mph - N/A   Clear
7:54 PM 73.9 °F - 71.1 °F 91% 29.98 in 10.0 mi North 5.8 mph - N/A   Clear
8:27 PM 73.4 °F - 71.6 °F 94% 29.98 in 10.0 mi NNE 3.5 mph - N/A   Scattered Clouds
8:54 PM 73.9 °F - 71.1 °F 91% 30.00 in 10.0 mi NNE 3.5 mph - N/A   Partly Cloudy
9:54 PM 72.0 °F - 70.0 °F 93% 30.01 in 10.0 mi Calm Calm - N/A   Clear
10:54 PM 71.1 °F - 68.0 °F 90% 30.01 in 10.0 mi ENE 4.6 mph - N/A   Clear
11:54 PM 68.0 °F - 66.9 °F 96% 30.01 in 10.0 mi Calm Calm - N/A   Clear